Location: Casilda
(33.0440°S, 61.1680°W)
Time: 02:07:01
(UTC-03:00)

ISS - Pass Details

Date: 14 February 2020
Orbit: 415 x 423 km, 51.6° (Epoch: 27 February)

Event Time Altitude Azimuth Distance (km) Brightness Sun altitude
Rises 20:23:48 0° 345° (NNW) 2,354 0.0 -6.1°
Reaches altitude 10° 20:26:14 10° 2° (N) 1,497 -1.2 -6.6°
Maximum altitude 20:28:48 21° 52° (NE) 1,021 -2.4 -7.1°
Drops below altitude 10° 20:31:24 10° 102° (ESE) 1,510 -1.4 -7.6°
Enters shadow 20:33:14 - 116° (ESE) 2,148 -0.6 -8.0°
